TimeCDT,TemperatureF,Dew PointF,Humidity,Sea Level PressureIn,VisibilityMPH,Wind Direction,Wind SpeedMPH,Gust SpeedMPH,PrecipitationIn,Events,Conditions,WindDirDegrees,DateUTC
12:53 AM,41.0,37.0,86,30.06,10.0,Calm,Calm,-,N/A,,Clear,0,2013-03-21 05:53:00
1:53 AM,41.0,37.0,86,30.05,10.0,Calm,Calm,-,N/A,,Clear,0,2013-03-21 06:53:00
2:53 AM,39.9,36.0,86,30.04,10.0,Calm,Calm,-,N/A,,Clear,0,2013-03-21 07:53:00
3:53 AM,41.0,37.9,89,30.03,10.0,Calm,Calm,-,N/A,,Clear,0,2013-03-21 08:53:00
4:53 AM,41.0,37.9,89,30.04,10.0,Calm,Calm,-,N/A,,Clear,0,2013-03-21 09:53:00
5:53 AM,42.1,39.0,89,30.04,10.0,Calm,Calm,-,N/A,,Clear,0,2013-03-21 10:53:00
6:53 AM,42.1,39.0,89,30.05,10.0,Calm,Calm,-,N/A,,Clear,0,2013-03-21 11:53:00
7:53 AM,46.9,36.0,66,30.06,10.0,ENE,4.6,-,N/A,,Clear,70,2013-03-21 12:53:00
8:53 AM,48.9,35.1,59,30.05,10.0,ENE,6.9,-,N/A,,Clear,70,2013-03-21 13:53:00
9:53 AM,54.0,33.1,45,30.05,10.0,ESE,13.8,17.3,N/A,,Clear,110,2013-03-21 14:53:00
10:53 AM,57.9,28.9,33,30.03,10.0,East,9.2,-,N/A,,Clear,100,2013-03-21 15:53:00
11:53 AM,59.0,30.0,33,30.00,10.0,East,8.1,-,N/A,,Mostly Cloudy,100,2013-03-21 16:53:00
12:53 PM,59.0,30.9,35,29.99,10.0,ESE,8.1,-,N/A,,Overcast,120,2013-03-21 17:53:00
1:53 PM,61.0,32.0,34,29.94,10.0,SE,8.1,-,N/A,,Mostly Cloudy,140,2013-03-21 18:53:00
2:53 PM,64.9,33.1,31,29.90,10.0,SE,8.1,-,N/A,,Overcast,140,2013-03-21 19:53:00
3:53 PM,64.9,32.0,29,29.87,10.0,South,11.5,-,N/A,,Mostly Cloudy,170,2013-03-21 20:53:00
4:53 PM,64.0,33.1,31,29.85,10.0,SE,5.8,-,N/A,,Overcast,140,2013-03-21 21:53:00
5:53 PM,64.9,33.1,31,29.82,10.0,SSE,8.1,-,N/A,,Clear,150,2013-03-21 22:53:00
6:53 PM,64.0,33.1,31,29.81,10.0,SE,8.1,-,N/A,,Overcast,140,2013-03-21 23:53:00
7:53 PM,61.0,35.1,38,29.82,10.0,SSE,4.6,-,N/A,,Overcast,150,2013-03-22 00:53:00
8:53 PM,57.9,37.0,46,29.83,10.0,SSE,5.8,-,N/A,,Mostly Cloudy,160,2013-03-22 01:53:00
9:53 PM,60.1,37.9,44,29.84,10.0,ESE,5.8,-,N/A,,Overcast,110,2013-03-22 02:53:00
10:53 PM,59.0,41.0,51,29.83,10.0,SSE,6.9,-,N/A,,Overcast,160,2013-03-22 03:53:00
11:53 PM,59.0,42.1,53,29.82,10.0,SE,6.9,-,N/A,,Mostly Cloudy,140,2013-03-22 04:53:00